Regional Weather Roundup
Issued by NWS Little Rock, AR

Home | Current Version | Previous Version | Text Only | Print | Product List | Glossary On
Versions: 1 2 3 4 5 6 7 8 9 10 11 12 13 14 15 16 17 18 19 20 21 22 23 24 25 26 27 28 29 30 31 32 33 34 35 36 37 38 39 40 41 42 43 44 45 46 47 48 49 50
000
ASUS44 KLZK 220405
RWRLZK

WEATHER ROUNDUP FOR ARKANSAS
NATIONAL WEATHER SERVICE LITTLE ROCK AR
1100 PM CDT MON AUG 21 2017

NOTE: "FAIR" INDICATES FEW OR NO CLOUDS BELOW 12,000 FEET WITH NO
SIGNIFICANT WEATHER AND/OR OBSTRUCTIONS TO VISIBILITY.

ARZ001-003-010-029-220500-
NORTHWEST ARKANSAS

CITY           SKY/WX    TMP DP  RH WIND       PRES   REMARKS
FAYETTEVILLE   CLEAR     76  75  97 CALM      30.09R
FORT SMITH     CLEAR     80  76  87 CALM      30.05S HX  86
HARRISON       CLEAR     76  73  91 S6        30.09S
BENTONVILLE    CLEAR     79  72  78 S5        30.09R
ROGERS         CLEAR     78  73  84 S8        30.10R
HIGHFILL       CLEAR     77  75  93 S6        30.09R
$$

ARZ004-005-016-220500-
NORTH CENTRAL ARKANSAS

CITY           SKY/WX    TMP DP  RH WIND       PRES   REMARKS
FLIPPIN        CLEAR     79  70  73 SW3       30.04S
MTN HOME       CLEAR     78  74  87 SW5       30.06F
$$

ARZ040-041-220500-
WEST CENTRAL ARKANSAS

CITY           SKY/WX    TMP DP  RH WIND       PRES   REMARKS
MENA           CLEAR     79  77  94 CALM      30.12R
MOUNT IDA      CLEAR     78  74  87 CALM      30.08R
$$

ARZ009-017-025-026-028-220500-
NORTHEAST ARKANSAS

CITY           SKY/WX    TMP DP  RH WIND       PRES   REMARKS
JONESBORO      CLEAR     80  77  90 S7        30.06F HX  87
NEWPORT        CLEAR     78  76  93 S5        30.07F
WALNUT RIDGE   CLEAR     79  73  83 S7        30.06S
BLYTHEVILLE    CLEAR     81  78  91 S5        30.07F HX  89
$$

ARZ022-023-033-042-044-220500-
CENTRAL ARKANSAS

CITY           SKY/WX    TMP DP  RH WIND       PRES   REMARKS
LITTLE ROCK    CLEAR     79  77  94 S6        30.08S
N LITTLE ROCK    N/A     81  75  82 CALM      30.08S HX  86
JACKSONVILLE   CLEAR     80  76  89 S3        30.08R HX  85
CONWAY           N/A     79  77  94 S6        30.06S
SEARCY         CLEAR     77  77 100 CALM      30.09S FOG
HOT SPRINGS    CLEAR     83  76  79 SE3       30.09R HX  91
RUSSELLVILLE   CLEAR     77  76  96 CALM      30.06R
CLINTON        FAIR      77  75  94 CALM      30.07S
$$

ARZ036-220500-
EAST ARKANSAS

CITY           SKY/WX    TMP DP  RH WIND       PRES   REMARKS
WEST MEMPHIS   PTCLDY    78  76  93 S5        30.07F
$$

ARZ050-053-066-070-073-220500-
SOUTHWEST ARKANSAS

CITY           SKY/WX    TMP DP  RH WIND       PRES   REMARKS
ARKADELPHIA    FAIR      78  78 100 CALM      30.08S
CAMDEN         CLEAR     81  75  83 CALM      30.08S HX  86
TEXARKANA      CLEAR     78  75  90 SE6       30.09R
EL DORADO      CLEAR     78  76  93 CALM      30.10S
DE QUEEN       CLEAR     77  77 100 CALM      30.07R FOG
$$

ARZ056-057-069-220500-
SOUTHEAST ARKANSAS

CITY           SKY/WX    TMP DP  RH WIND       PRES   REMARKS
PINE BLUFF     CLEAR     79  76  90 S5        30.09S
MONTICELLO     CLEAR     78  73  84 CALM      30.09F

$$





USA.gov is the U.S. government's official web portal to all federal, state and local government web resources and services.